Clarksburg, WV

9:51 AM EDT on July 18, 2019 (GMT -0400)
Benedum

Weather History for KCKB - May, 2019

Change the Weather History Date:

Wednesday, May 15, 2019

  Actual Average Record
Temperature  
Mean Temperature 55 °F -  
Max Temperature 70 °F 74 °F 88 °F (2013)
Min Temperature 39 °F 46 °F 30 °F (1996)
Degree Days  
Heating Degree Days 10    
Month to date heating degree days 53  
Growing Degree Days 4 (Base 50)    
Moisture  
Dew Point 41 °F    
Average Humidity 63    
Maximum Humidity 92    
Minimum Humidity 33    
Precipitation  
Precipitation 0.00 in - - ()
Month to date precipitation 1.80  
Year to date precipitation 15.93  
Sea Level Pressure  
Sea Level Pressure 29.99 in    
Wind  
Wind Speed 5 mph (WSW)    
Max Wind Speed 16 mph    
Max Gust Speed 21 mph    
Visibility 10 miles    
Events      
Averages and records for this station are not official NWS values.
T = Trace of Precipitation, MM = Missing Value Source: NWS Daily Summary

Daily Weather History Graph

Daily Weather History Graph

Search for Another Location

Airport or City:

Astronomy

May. 15, 2019 Rise Set
Actual Time 6:07 AM EDT 8:27 PM EDT
Civil Twilight 5:37 AM EDT 8:57 PM EDT
Nautical Twilight 5:00 AM EDT 9:35 PM EDT
Astronomical Twilight 4:19 AM EDT 10:16 PM EDT
Moon 4:57 PM EDT (5/15) 4:30 AM EDT (5/15)
Length of Visible Light 15h 20m
Length of Day
14h 19m
Waxing Gibbous, 87% of the Moon is Illuminated
May 15
Waxing Gibbous
May 18
Full
May 26
Last Quarter
Jun 3
New
Jun 10
First Quarter

Hourly Weather History & Observations

Time (EDT) Temp. Windchill Dew Point Humidity Pressure Visibility Wind Dir Wind Speed Gust Speed Precip Events Conditions
12:53 AM 42.1 °F - 37.9 °F 85% 30.02 in 9.0 mi Calm Calm - N/A   Clear
1:53 AM 42.1 °F - 39.0 °F 89% 30.01 in 10.0 mi Calm Calm - N/A   Partly Cloudy
2:53 AM 42.1 °F - 39.0 °F 89% 30.00 in 10.0 mi Calm Calm - N/A   Mostly Cloudy
3:53 AM 43.0 °F - 37.9 °F 82% 30.00 in 10.0 mi Calm Calm - N/A   Scattered Clouds
4:53 AM 41.0 °F - 37.0 °F 86% 30.00 in 10.0 mi Calm Calm - N/A   Clear
5:53 AM 39.9 °F 37.8 °F 37.0 °F 89% 30.00 in 10.0 mi SSE 3.5 mph - N/A   Clear
6:53 AM 39.9 °F - 36.0 °F 86% 30.02 in 9.0 mi Calm Calm - N/A   Clear
7:53 AM 46.9 °F - 42.1 °F 83% 30.04 in 10.0 mi Calm Calm - N/A   Clear
8:53 AM 52.0 °F - 43.0 °F 71% 30.04 in 10.0 mi South 5.8 mph - N/A   Clear
9:53 AM 57.0 °F - 44.1 °F 62% 30.04 in 10.0 mi Variable 4.6 mph - N/A   Clear
10:53 AM 62.1 °F - 44.1 °F 52% 30.03 in 10.0 mi North - - N/A   Clear
11:53 AM 66.0 °F - 45.0 °F 47% 30.02 in 10.0 mi Variable 5.8 mph - N/A   Clear
12:53 PM 66.0 °F - 39.9 °F 38% 30.00 in 10.0 mi WNW 8.1 mph - N/A   Mostly Cloudy
1:53 PM 66.0 °F - 39.9 °F 38% 29.99 in 10.0 mi NNW 5.8 mph - N/A   Mostly Cloudy
2:53 PM 68.0 °F - 41.0 °F 37% 29.97 in 10.0 mi WSW 12.7 mph 19.6 mph N/A   Mostly Cloudy
3:53 PM 70.0 °F - 41.0 °F 35% 29.95 in 10.0 mi WSW 10.4 mph 17.3 mph N/A   Mostly Cloudy
4:53 PM 69.1 °F - 39.0 °F 33% 29.94 in 10.0 mi West 12.7 mph 19.6 mph N/A   Mostly Cloudy
5:53 PM 68.0 °F - 39.0 °F 35% 29.95 in 10.0 mi West 9.2 mph - N/A   Overcast
6:53 PM 66.9 °F - 42.1 °F 40% 29.94 in 10.0 mi West 6.9 mph - N/A   Scattered Clouds
7:53 PM 64.0 °F - 42.1 °F 45% 29.94 in 10.0 mi WSW 5.8 mph - N/A   Clear
8:53 PM 60.1 °F - 43.0 °F 53% 29.95 in 10.0 mi SW 5.8 mph - N/A   Partly Cloudy
9:53 PM 59.0 °F - 43.0 °F 55% 29.95 in 10.0 mi Calm Calm - N/A   Clear
10:53 PM 55.9 °F - 44.1 °F 64% 29.96 in 10.0 mi Calm Calm - N/A   Clear
11:53 PM 55.0 °F - 43.0 °F 64% 29.95 in 10.0 mi South 4.6 mph - N/A   Clear